User: anonymous   Login
Location: Tierz
(42.1336°N, 0.3549°W)
Time: 02:47:35
(UTC+00:00)
Language:

Cosmos 1386 Rocket - Orbit

View from above orbital plane
View from above orbital plane
View from above satellite
View from above satellite

Ground track
Ground track

The orbit data is extracted from the following two-line orbital elements,

1 13354U 82069B   21018.71989627  .00000055  00000-0  38326-4 0  9998
2 13354  82.9590  85.5504 0052878  48.3268 312.2398 13.78907058938274
Epoch (UTC): 18 January 2021 17:16:39
Eccentricity: 0.0052878
inclination: 82.9590°
perigee height: 929 km
apogee height: 1006 km
right ascension of ascending node: 85.5504°
argument of perigee: 48.3268°
revolutions per day: 13.78907058
mean anomaly at epoch: 312.2398°
orbit number at epoch: 93827

The dashed part of the orbit path shows where the satellite is in the earth's shadow,  

DLR